{"data":{"norad_id":61245,"intl_designator":"2024-175C","name":"STARLINK-11280 [DTC]","alt_names":[],"object_type":"PAYLOAD","status":"ACTIVE","operator":null,"country":"US","launch_date":"2024-09-25","launch_site_code":"AFWTR","launch_vehicle":null,"mission":null,"orbit_class":"UNKNOWN","rcs_meters":null,"size_class":null,"mass_kg":null,"dimensions":null,"purposes":["comms"],"wikipedia_slug":null,"has_3d_model":false,"image_url":null,"decayed_at":null,"tle_current":{"epoch":"2026-05-25T03:01:15.396960Z","epoch_age_seconds":61011,"freshness":"FRESH","line1":"1 61245U 24175C   26145.12587265  .00000381  00000+0  80015-5 0  9991","line2":"2 61245  53.1585  39.3236 0000875  76.8203 283.2913 15.69704535 95376","mean_motion":15.69704535,"eccentricity":8.75e-5,"inclination_deg":53.1585,"raan_deg":39.3236,"arg_perigee_deg":76.8203,"mean_anomaly_deg":283.2913,"bstar":8.0015e-6,"rev_number":9537,"period_min":91.737009602256,"perigee_km":359.15282475671,"apogee_km":360.33195364982,"semimajor_km":6737.8793892033,"source":"CELESTRAK","updated_at":"2026-05-25T13:38:19.364146Z"}}}